DECAYED

STARLINK-4601, 53617 (Decayed)

Orbit data source: Space-Track

STARLINK-4601, 53617 was a payload satellite owned by SpaceX/Seattle (US) in LEO that was launched on Sun, 28 Aug 2022 UTC via an FALCON 9 launch vehicle from the Air Force Eastern Test Range (AFETR). Payload-class satellites include a variety of spacecraft equipped with specific instruments for various scientific and technological missions. These include communications satellites like Starlink; space stations such as the ISS; scientific satellites like the Hubble; Earth observation satellites from companies like Planet Labs, Umbra, and HawkEye 360; GPS; miniature CubeSats for education and research; and military/defense satellites.

Not visible in the next 10 days
Identifier
53617, 2022-104AF
Orbit
Decayed
Country
Flag of USUS
Related business
Manufacturer
SpaceX/Seattle
Mission
Decayed Commercial Communications
Bus & Motor
STARLINK, Unknown motor
Mass
300 kg wet, ~290 kg dry
Launch date (UTC)
2022-08-28 (4 years ago)
Launch vehicle
FALCON 9
Launch site
Air Force Eastern Test Range (AFETR)
Object type
Payload
Rocket body
Debris
Shape & HBR
Box + 1 Pan, 10.1 m
Radar Cross Section
13.562 m², Large (>1 m²)

Expand to show TLE details & history
Last TLE update: 1 year ago

TLE from 1 year ago
0 STARLINK-4601
1 53617U 22104AF  25008.24816515  .09277263  12302-4  56948-3 0  9991
2 53617  53.1951 316.6882 0006924 224.8997 287.7345 16.41299491131203
Epoch: 2025-01-08T05:57Z
TLE epoch observation values (Epoch: 2025-01-08T05:57:21.468Z)
Latitude
21.70726°
Longitude
-77.92147°
Altitude
161.618 km
Speed
7.813 km/s
True Right ascension
07h 57m 50s
True Declination
21° 34' 43"
Sunlit
Object was in full shadow at epoch
Visualization orbit readout
Latitude
Unknown
Longitude
Unknown
Altitude
Unknown
Speed
Unknown
Apparent Right ascension
Unknown
Apparent Declination
Unknown
Sunlit
N/A
Visualization observer readout
Local Sidereal Time
06:07:21
Azimuth
Unknown
Elevation
Unknown
Doppler factor
Unknown
Orbital elements
Apogee altitude
167.139 km
Perigee altitude
158.082 km
Semi-major axis
6,540.747 km
Eccentricity
0.00069
Inclination
53.1951°
RAAN
316.6882°
Arg. of periapsis
224.8997°
True anomaly
287.65891°
Mean anomaly
287.7345°
Eccentric anomaly
287.69671°
Mean motion
4.10301 °/min
Orbital period
87.74 mins
BSTAR
0.00056948
Loading maneuver chart data...
Computing Atmospheric mass density...
Loading historical data...
Loading historical data...
Loading historical data...
Loading historical data...
Loading historical data...
Loading historical data...
Loading historical data...

Documentation

Showing up to 5 results
|